TimeEST,TemperatureF,Dew PointF,Humidity,Sea Level PressureIn,VisibilityMPH,Wind Direction,Wind SpeedMPH,Gust SpeedMPH,PrecipitationIn,Events,Conditions,WindDirDegrees,DateUTC
12:13 AM,46.4,42.8,87,30.05,7.0,East,3.5,-,N/A,,Overcast,80,2012-12-09 05:13:00
12:21 AM,48.2,42.8,82,30.05,7.0,East,3.5,-,N/A,,Overcast,80,2012-12-09 05:21:00
12:53 AM,48.0,44.1,86,30.06,7.0,East,5.8,-,N/A,,Overcast,80,2012-12-09 05:53:00
1:53 AM,46.9,43.0,86,30.05,10.0,East,8.1,-,N/A,,Overcast,80,2012-12-09 06:53:00
2:53 AM,46.0,41.0,83,30.06,10.0,East,5.8,-,N/A,,Overcast,80,2012-12-09 07:53:00
3:18 AM,46.4,42.8,87,30.05,10.0,East,6.9,-,N/A,,Overcast,80,2012-12-09 08:18:00
3:28 AM,44.6,41.0,87,30.05,10.0,East,9.2,-,N/A,,Overcast,80,2012-12-09 08:28:00
3:53 AM,45.0,41.0,86,30.05,10.0,ENE,8.1,-,N/A,,Overcast,70,2012-12-09 08:53:00
4:53 AM,45.0,41.0,86,30.04,10.0,ENE,5.8,-,N/A,,Overcast,70,2012-12-09 09:53:00
5:53 AM,45.0,41.0,86,30.04,10.0,ENE,9.2,-,N/A,,Overcast,70,2012-12-09 10:53:00
6:27 AM,44.6,41.0,87,30.02,10.0,ENE,6.9,-,N/A,,Overcast,70,2012-12-09 11:27:00
6:53 AM,45.0,41.0,86,30.03,10.0,East,6.9,-,N/A,,Overcast,90,2012-12-09 11:53:00
7:53 AM,46.0,41.0,83,30.02,10.0,East,9.2,-,N/A,,Overcast,100,2012-12-09 12:53:00
8:53 AM,46.0,42.1,86,30.00,9.0,East,8.1,-,N/A,,Overcast,100,2012-12-09 13:53:00
9:53 AM,46.9,43.0,86,29.99,9.0,ESE,8.1,-,N/A,,Overcast,110,2012-12-09 14:53:00
10:29 AM,46.4,44.6,93,29.97,8.0,ESE,5.8,-,N/A,,Overcast,110,2012-12-09 15:29:00
10:53 AM,48.0,45.0,89,29.97,7.0,ESE,5.8,-,N/A,,Overcast,110,2012-12-09 15:53:00
11:53 AM,48.9,46.0,90,29.93,6.0,ESE,8.1,-,0.00,Rain,Light Rain,120,2012-12-09 16:53:00
12:53 PM,51.1,48.0,89,29.88,7.0,ESE,4.6,-,0.00,,Overcast,120,2012-12-09 17:53:00
1:53 PM,53.1,48.9,86,29.85,9.0,Calm,Calm,-,N/A,,Overcast,0,2012-12-09 18:53:00
2:20 PM,55.4,51.8,88,29.84,10.0,Variable,3.5,-,N/A,,Overcast,0,2012-12-09 19:20:00
2:53 PM,57.0,53.1,87,29.84,10.0,SE,3.5,-,N/A,,Overcast,130,2012-12-09 19:53:00
3:31 PM,57.2,53.6,88,29.82,10.0,SE,5.8,-,N/A,,Overcast,140,2012-12-09 20:31:00
3:53 PM,57.9,54.0,87,29.83,10.0,SSE,3.5,-,N/A,,Overcast,150,2012-12-09 20:53:00
4:20 PM,57.2,55.4,94,29.82,10.0,Calm,Calm,-,0.00,Rain,Light Rain,0,2012-12-09 21:20:00
4:53 PM,59.0,55.0,87,29.82,10.0,Variable,3.5,-,0.00,,Overcast,0,2012-12-09 21:53:00
5:53 PM,57.9,55.9,93,29.80,8.0,Calm,Calm,-,0.01,Rain,Light Rain,0,2012-12-09 22:53:00
6:40 PM,59.0,57.2,94,29.78,10.0,SSE,4.6,-,0.00,,Overcast,150,2012-12-09 23:40:00
6:53 PM,59.0,57.0,93,29.78,10.0,Variable,4.6,-,0.00,Rain,Light Rain,0,2012-12-09 23:53:00
7:14 PM,60.8,57.2,88,29.77,10.0,Variable,4.6,-,0.00,,Overcast,0,2012-12-10 00:14:00
7:51 PM,60.8,57.2,88,29.76,10.0,Variable,5.8,-,0.00,,Overcast,0,2012-12-10 00:51:00
7:53 PM,61.0,57.0,87,29.76,10.0,South,4.6,-,0.00,,Overcast,190,2012-12-10 00:53:00
8:31 PM,60.8,57.2,88,29.76,6.0,SSW,8.1,-,0.02,Rain-Thunderstorm,Rain,210,2012-12-10 01:31:00
8:44 PM,60.8,57.2,88,29.74,4.0,SW,6.9,17.3,0.06,Rain-Thunderstorm,Thunderstorms and Rain,220,2012-12-10 01:44:00
8:53 PM,59.0,55.9,90,29.74,4.0,SSW,8.1,-,0.08,Rain,Rain,210,2012-12-10 01:53:00
9:04 PM,57.2,55.4,94,29.72,8.0,Calm,Calm,-,0.01,Rain-Thunderstorm,Light Rain,0,2012-12-10 02:04:00
9:19 PM,57.2,55.4,94,29.73,9.0,SW,5.8,-,0.01,Rain,Light Rain,220,2012-12-10 02:19:00
9:53 PM,57.0,54.0,89,29.74,4.0,SSW,4.6,-,0.09,Rain,Rain,210,2012-12-10 02:53:00
10:53 PM,55.9,54.0,93,29.74,3.0,Variable,3.5,-,0.06,Rain,Rain,0,2012-12-10 03:53:00
11:07 PM,55.4,53.6,94,29.72,2.5,Variable,5.8,-,0.07,Rain,Heavy Rain,0,2012-12-10 04:07:00
11:17 PM,55.4,53.6,94,29.72,4.0,South,5.8,-,0.10,Rain,Rain,180,2012-12-10 04:17:00
11:53 PM,55.9,54.0,93,29.71,5.0,South,6.9,-,0.20,Rain,Rain,170,2012-12-10 04:53:00